MIDAS 4 DEB, 42664

Orbit data source: Space-Track

MIDAS 4 DEB, 42664 is space debris in LEO originally from a launch on Sat, 21 Oct 1961 UTC launched from the Air Force Western Test Range (AFWTR). Debris objects in space refer to the collection of defunct objects orbiting the Earth. Examples of debris include non-operational satellites, rocket bodies, and fragments generated from explosions, collisions, or faulty payload assembly.

Loading next visibility...
MIDAS 4 DEB details
Identifier
42664, 1961-028K
Orbit
LEO
Last TLE update1 month ago
Origin
Flag of USUSAF SSD (US)
ManufacturerUnknown
MissionSpacecraft
Bus & MotorUnknown
MassUnknown
Launch date (UTC)
1961-10-21 (63 years ago)
Launch vehicleUnknown
Launch site
Air Force Western Test Range (AFWTR)
Object type
Payload
Rocket body
Debris
Shape & HBRUnknown
Radar Cross SectionMedium (>0.1 m² and <1 m²)

Expand to show TLE details & history

TLE from 1 month ago
0 MIDAS 4 DEB
1 42664U 61028K   24326.84906308  .00000037  00000-0  16896-1 0  9995
2 42664  95.8493 116.3120 0342527  69.0921 294.6244  8.69039057300737
Epoch: 2024-11-21T20:22Z
Definitive object data (Epoch: 2024-11-21T20:22:39.05Z)
Latitude-0.00005°
Longitude109.32439°
Altitude3,484.577 km
Speed6.4 km/s
True Right ascension07h 45m 14s
True Declination0° 00' 00"
Sunlit
Object was in daylight at TLE epoch
Visualization TLE readout
Latitude-37.18037°
Longitude-68.85207°
Altitude3,970.717 km
Speed6.099 km/s
Apparent Right ascension21h 01m 21s
Apparent Declination-40° 20' 48"
Sunlit
Object is in daylight
Visualization observer readout
Local Sidereal Time11:00:53
Azimuth100.815° ESE
Elevation-67.258°
Doppler factor1
Orbital elements
Apogee altitude3,955.257 km
Perigee altitude3,270.808 km
Semi-major axis9,991.169 km
Eccentricity0.0342527
Inclination95.8493°
RAAN116.312°
Arg. of periapsis69.0921°
True anomaly290.99395°
Mean anomaly294.6244°
Eccentric anomaly292.81542°
Mean motion2.1733 °/min
BSTAR0.016896
Orbital period165.65 mins
Loading maneuver chart data...
Loading historical data...
Loading historical data...
Loading historical data...
Loading historical data...
Loading historical data...
Loading historical data...
Loading historical data...

MIDAS 4 DEB Visibility forecast

Observer location: undefined°, undefined

Span
Click to sort rows by Start time (UTC) header in descending order
Start Az.
Max El. time (UTC)
Max El. Az.
Max El.
End time (UTC)
End Az.
33 mins2024-12-21 19:24:09.741Z20.223° NNE2024-12-21 19:40:09.741Z87.891° E33.046°2024-12-21 19:57:09.741Z152.312° SSE
34 mins2024-12-21 22:08:09.741Z3.487° NNE2024-12-21 22:23:09.741Z294.05° NW41.438°2024-12-21 22:42:09.741Z216.308° SW
15 mins2024-12-22 00:54:09.741Z346.502° N2024-12-22 01:01:09.741Z320.628° NNW15.383°2024-12-22 01:09:09.741Z292.947° NW
21 mins2024-12-22 05:54:09.741Z89.543° E2024-12-22 06:04:09.741Z47.711° ENE22.365°2024-12-22 06:15:09.741Z4.082° NNE
32 mins2024-12-22 08:28:09.741Z164.828° S2024-12-22 08:44:09.741Z13.983° NNE44.957°2024-12-22 09:00:09.741Z351.255° N
21 mins2024-12-22 11:20:09.741Z245.457° WSW2024-12-22 11:30:09.741Z286.659° WNW19.502°2024-12-22 11:41:09.741Z330.155° NNW
|